Grand Junction, CO

1:55 PM MDT on May 25, 2017 (GMT -0600)
Walker

Weather History for KGJT - January, 2013

Change the Weather History Date:

Monday, January 28, 2013

  Actual Average Record
Temperature  
Mean Temperature 32 °F 29 °F  
Max Temperature 39 °F 39 °F 57 °F (1931)
Min Temperature 25 °F 18 °F -11 °F (1948)
Degree Days  
Heating Degree Days 33 36  
Month to date heating degree days 1444 1058  
Since 1 July heating degree days 3724 3417  
Cooling Degree Days 0 0  
Month to date cooling degree days 0 0  
Year to date cooling degree days 0 0  
Moisture  
Dew Point 29 °F    
Average Humidity 83    
Maximum Humidity 96    
Minimum Humidity 69    
Precipitation  
Precipitation 0.01 in 0.02 in 0.31 in (1939)
Month to date precipitation 0.61 0.53  
Year to date precipitation 0.61 0.53  
Snow  
Snow T in 0.10 in 2.20 in (1939)
Month to date snowfall 1.4 4.5  
Since 1 July snowfall 14.4 11.9  
Snow Depth T in    
Sea Level Pressure  
Sea Level Pressure 29.77 in    
Wind  
Wind Speed 8 mph (North)    
Max Wind Speed 18 mph    
Max Gust Speed 24 mph    
Visibility 9 miles    
Events Rain , Snow    
T = Trace of Precipitation, MM = Missing Value Source: NWS Daily Summary

Daily Weather History Graph

Daily Weather History Graph

Search for Another Location

Airport or City:

Trip Planner

Search our weather history database for the weather conditions in past years. The results will help you decide how hot, cold, wet, or windy it might be!

Date:

Astronomy

Jan. 28, 2013 Rise Set
Actual Time 7:23 AM MST 5:30 PM MST
Civil Twilight 6:55 AM MST 5:59 PM MST
Nautical Twilight 6:23 AM MST 6:31 PM MST
Astronomical Twilight 5:51 AM MST 7:03 PM MST
Moon 7:27 PM MST (1/28) 7:52 AM MST (1/28)
Length of Visible Light 11h 03m
Length of Day
10h 06m
Full, 97% of the Moon is Illuminated
Jan 28
Full
Feb 3
Last Quarter
Feb 10
New
Feb 17
First Quarter
Feb 25
Full

Hourly Weather History & Observations

Time (MST) Temp. Windchill Dew Point Humidity Pressure Visibility Wind Dir Wind Speed Gust Speed Precip Events Conditions
12:53 AM 37.9 °F 32.7 °F 33.1 °F 83% 29.73 in 10.0 mi East 6.9 mph - N/A   Partly Cloudy
1:53 AM 39.0 °F 34.8 °F 32.0 °F 76% 29.73 in 10.0 mi ENE 5.8 mph - N/A   Scattered Clouds
2:53 AM 34.0 °F 27.2 °F 32.0 °F 92% 29.74 in 10.0 mi ENE 8.1 mph - N/A   Mostly Cloudy
3:53 AM 36.0 °F 30.3 °F 34.0 °F 93% 29.70 in 10.0 mi NE 6.9 mph - N/A   Mostly Cloudy
4:53 AM 35.1 °F 28.6 °F 33.1 °F 92% 29.71 in 10.0 mi North 8.1 mph - N/A   Overcast
5:53 AM 35.1 °F 31.0 °F 33.1 °F 92% 29.72 in 10.0 mi NNE 4.6 mph - 0.01 in Rain Light Rain
6:53 AM 36.0 °F 33.3 °F 32.0 °F 86% 29.70 in 10.0 mi NE 3.5 mph - 0.00 in   Overcast
7:53 AM 35.1 °F 28.6 °F 30.9 °F 85% 29.71 in 10.0 mi East 8.1 mph - N/A   Overcast
8:38 AM 33.8 °F 25.3 °F 32.0 °F 93% 29.74 in 10.0 mi NW 11.5 mph - N/A   Overcast
8:53 AM 34.0 °F 24.6 °F 32.0 °F 92% 29.74 in 10.0 mi NNW 13.8 mph - N/A   Mostly Cloudy
9:53 AM 34.0 °F 25.0 °F 32.0 °F 92% 29.74 in 10.0 mi NNW 12.7 mph - N/A   Overcast
10:53 AM 35.1 °F 28.6 °F 32.0 °F 89% 29.76 in 10.0 mi North 8.1 mph - N/A   Overcast
11:28 AM 33.8 °F 27.0 °F 32.0 °F 93% 29.78 in 10.0 mi NW 8.1 mph - 0.00 in   Overcast
11:49 AM 33.8 °F 26.4 °F 30.2 °F 87% 29.78 in 2.0 mi NNW 9.2 mph - 0.00 in Snow Light Snow
11:53 AM 33.1 °F 26.1 °F 30.9 °F 92% 29.78 in 3.0 mi North 8.1 mph - 0.00 in Snow Light Snow
12:05 PM 33.8 °F 27.0 °F 32.0 °F 93% 29.76 in 9.0 mi North 8.1 mph - 0.00 in Snow Light Snow
12:53 PM 34.0 °F 27.2 °F 30.9 °F 89% 29.74 in 10.0 mi North 8.1 mph - 0.00 in   Mostly Cloudy
1:27 PM 35.6 °F 30.7 °F 30.2 °F 81% 29.74 in 10.0 mi NNW 5.8 mph - N/A   Mostly Cloudy
1:53 PM 35.1 °F 32.2 °F 30.9 °F 85% 29.74 in 10.0 mi NW 3.5 mph - N/A   Mostly Cloudy
2:53 PM 33.1 °F 24.4 °F 30.9 °F 92% 29.76 in 10.0 mi NW 11.5 mph - N/A   Overcast
3:53 PM 30.9 °F 19.4 °F 28.0 °F 89% 29.77 in 3.0 mi WNW 17.3 mph - 0.00 in Snow Light Snow
4:53 PM 28.9 °F 17.7 °F 24.1 °F 82% 29.79 in 10.0 mi West 15.0 mph - 0.00 in   Mostly Cloudy
5:53 PM 28.9 °F 18.2 °F 24.1 °F 82% 29.80 in 10.0 mi West 13.8 mph - N/A   Mostly Cloudy
6:53 PM 30.0 °F 18.7 °F 21.0 °F 69% 29.82 in 10.0 mi West 16.1 mph - N/A   Overcast
7:53 PM 28.9 °F 21.1 °F 19.9 °F 69% 29.85 in 10.0 mi West 8.1 mph - N/A   Overcast
8:53 PM 28.9 °F - 19.9 °F 69% 29.86 in 10.0 mi Calm Calm - N/A   Overcast
9:53 PM 27.0 °F 21.6 °F 24.1 °F 89% 29.88 in 10.0 mi ENE 4.6 mph - N/A   Overcast
10:53 PM 26.1 °F - 24.1 °F 92% 29.89 in 10.0 mi Calm Calm - N/A   Overcast
11:53 PM 25.0 °F 17.1 °F 21.9 °F 88% 29.89 in 10.0 mi SSW 6.9 mph - N/A   Overcast